Location: Newark
(48.8656°N, 2.3211°E)
Time: 00:11:14
(UTC+00:00)

Envisat - Pass Details

Date: 21 February 2019
Orbit: 764 x 766 km, 98.2° (Epoch: 18 March)

Event Time Altitude Azimuth Distance (km) Brightness Sun altitude
Rises 18:14:29 0° 162° (SSE) 3,222 6.1 -9.5°
Reaches altitude 10° 18:16:46 10° 161° (SSE) 2,300 5.3 -9.9°
Maximum altitude 18:21:51 83° 74° (ENE) 778 3.0 -10.7°
Drops below altitude 10° 18:26:58 10° 347° (NNW) 2,316 5.6 -11.6°
Sets 18:29:17 0° 347° (NNW) 3,246 6.4 -11.9°
